Flag for United Kingdom Weather past 2 weeks in Leicester, England, United Kingdom

Now
66 °F

Scattered clouds.


Feels Like: 66 °F
Forecast: 55 / 71 °F
Wind: 21 mph from Southwest

Location: East Midlands

Current Time: Aug 4, 2015 at 4:58:10 PM

Latest Report: Aug 4, 2015 at 4:20 PM


Visibility: N/A

Pressure: 29.83 "Hg

Humidity: 60%

Dew point: 52 °F

Location of LeicesterLocation

Historic Weather in Leicester — Graph

°F

Leicester temperature yesterday

Maximum temperature yesterday: 73 °F (at 2:20 PM)
Minimum temperature yesterday: 61 °F (at 3:50 AM)
Average temperature yesterday: 67 °F

Past Weeks' High & Low Weather Summary

 TemperatureHumidityPressure
High75 °F (Aug 2, 4:50 PM)100% (Jul 24, 8:20 PM)30.15 "Hg (Jul 24, 8:20 PM)
Low43 °F (Jul 31, 3:20 AM)35% (Jul 31, 4:20 PM)29.33 "Hg (Jul 27, 1:50 AM)
Average59 °F73%29.85 "Hg
* Reported Jul 20 3:20 PM — Aug 4 3:20 PM, Leicester, Weather by CustomWeather, © 2015

Note: Actual official high and low records may vary slightly from our data, if they occured in-between our weather recording intervals... More about our weather records

Advertising

Leicester weather history for previous 24 hours

 ConditionsComfort  
Time TempWeatherWind HumidityBarometerVisibility
3:20 PM
Tue, Aug 4
68 °FPartly sunny.20 mph56%29.83 "HgN/A
2:50 PM66 °FPartly sunny.18 mph60%29.83 "HgN/A
2:20 PM68 °FPartly sunny.16 mph56%29.83 "HgN/A
1:50 PM66 °FScattered clouds.17 mph60%29.83 "HgN/A
1:20 PM64 °FBroken clouds.21 mph64%29.83 "HgN/A
12:50 PM64 °FBroken clouds.18 mph64%29.83 "HgN/A
12:20 PM66 °FPartly sunny.21 mph60%29.80 "HgN/A
11:50 AM63 °FBroken clouds.21 mph64%29.83 "HgN/A
11:20 AM64 °FBroken clouds.20 mph64%29.83 "HgN/A
9:50 AM63 °FScattered clouds.22 mph68%29.80 "HgN/A
9:20 AM61 °FScattered clouds.20 mph68%29.80 "HgN/A
8:50 AM59 °FPassing clouds.22 mph72%29.80 "HgN/A
8:20 AM59 °FScattered clouds.18 mph72%29.80 "HgN/A
7:50 AM59 °FPassing clouds.17 mph72%29.80 "HgN/A
7:20 AM57 °FSunny.17 mph77%29.80 "Hg10 mi
6:50 AM55 °FPassing clouds.18 mph82%29.80 "HgN/A
6:20 AM55 °FPassing clouds.17 mph82%29.77 "HgN/A
5:50 AM55 °FPassing clouds.16 mph82%29.77 "HgN/A
5:20 AM55 °FPassing clouds.15 mph82%29.80 "HgN/A
4:50 AM55 °FClear.14 mph82%29.80 "Hg10 mi
4:20 AM55 °FClear.12 mph82%29.77 "Hg10 mi
3:50 AM55 °FClear.13 mph82%29.80 "Hg10 mi
3:20 AM55 °FClear.13 mph77%29.77 "Hg10 mi
2:50 AM55 °FPassing clouds.9 mph77%29.80 "HgN/A
2:20 AM55 °FPassing clouds.9 mph77%29.80 "HgN/A
1:50 AM55 °FClear.10 mph77%29.80 "Hg10 mi
1:20 AM57 °FClear.9 mph72%29.80 "Hg10 mi
12:50 AM57 °FClear.10 mph77%29.80 "Hg10 mi
12:20 AM59 °FPassing clouds.12 mph72%29.80 "HgN/A
11:50 PM
Mon, Aug 3
61 °FPassing clouds.9 mph68%29.80 "HgN/A
11:20 PM61 °FClear.10 mph68%29.80 "Hg10 mi
10:20 PM63 °FPassing clouds.10 mph68%29.80 "HgN/A
9:50 PM64 °FSunny.10 mph60%29.80 "Hg10 mi
9:20 PM64 °FSunny.14 mph60%29.80 "Hg10 mi
8:50 PM66 °FScattered clouds.15 mph56%29.80 "HgN/A
8:20 PM66 °FScattered clouds.10 mph56%29.77 "HgN/A
7:50 PM68 °FScattered clouds.12 mph56%29.77 "HgN/A
7:20 PM68 °FScattered clouds.13 mph53%29.77 "HgN/A
6:50 PM68 °FSunny.16 mph53%29.77 "Hg10 mi
6:20 PM70 °FSunny.16 mph50%29.77 "Hg10 mi
5:50 PM70 °FSunny.18 mph50%29.77 "Hg10 mi
5:20 PM72 °FSunny.18 mph44%29.77 "Hg10 mi
4:50 PM72 °FSunny.20 mph44%29.77 "Hg10 mi
4:20 PM72 °FScattered clouds.24 mph47%29.77 "HgN/A
Weather by CustomWeather, © 2015

See weather overviewHow to use our weather pages